When you browse on this site, cookies collect data to enhance your experience and personalize the content and advertising you see.
Visit our Privacy Policy to learn more. By continuing to use the site, you agree to this use of cookies and data.
  • In Austria
  • List of Countries
  • For 7 days
  • Water Temperature
  • Satellite Maps
  • Weather Map
  • News
  • Weather Widgets
  • user-avatar
    Login

    Hourly Weather Kasama

    Today, 21 November, Wednesday

    Time Temperature Precipitation Wind Pressure Humidity
    00:00 +30°C° 0 mm 2 mps 721 mmHg 19%
    01:00 +30°C° 0 mm 2 mps 721 mmHg 19%
    02:00 +29°C° 0 mm 2 mps 721 mmHg 20%
    03:00 +29°C° 0 mm 2 mps 721 mmHg 20%
    04:00 +29°C° 0 mm 2 mps 721 mmHg 20%
    05:00 +28°C° 0 mm 2 mps 721 mmHg 20%
    06:00 +30°C° 0 mm 2 mps 721 mmHg 19%
    07:00 +33°C° 0 mm 3 mps 722 mmHg 18%
    08:00 +34°C° 0 mm 4 mps 722 mmHg 17%
    09:00 +36°C° 0 mm 4 mps 722 mmHg 17%
    10:00 +38°C° 0 mm 4 mps 722 mmHg 17%
    11:00 +41°C° 0 mm 4 mps 722 mmHg 17%
    12:00 +42°C° 0 mm 3 mps 721 mmHg 16%
    13:00 +43°C° 0 mm 3 mps 720 mmHg 16%
    14:00 +42°C° 0 mm 2 mps 719 mmHg 15%
    15:00 +41°C° 0 mm 2 mps 719 mmHg 16%
    16:00 +41°C° 0 mm 2 mps 719 mmHg 17%
    17:00 +40°C° 0 mm 2 mps 718 mmHg 18%
    18:00 +38°C° 0 mm 2 mps 719 mmHg 20%
    19:00 +37°C° 0 mm 2 mps 719 mmHg 21%
    20:00 +35°C° 0 mm 2 mps 720 mmHg 23%
    21:00 +35°C° 0 mm 2 mps 720 mmHg 24%
    22:00 +34°C° 0 mm 2 mps 720 mmHg 25%
    23:00 +34°C° 0 mm 2 mps 720 mmHg 25%

    Tomorrow, 22 November, Thursday

    Time Temperature Precipitation Wind Pressure Humidity
    00:00 +32°C° 0 mm 2 mps 720 mmHg 26%
    01:00 +32°C° 0 mm 2 mps 720 mmHg 27%
    02:00 +31°C° 0 mm 2 mps 719 mmHg 28%
    03:00 +31°C° 0 mm 2 mps 720 mmHg 29%
    04:00 +31°C° 0 mm 2 mps 720 mmHg 29%
    05:00 +31°C° 0 mm 2 mps 720 mmHg 30%
    06:00 +32°C° 0 mm 2 mps 721 mmHg 29%
    07:00 +34°C° 0 mm 2 mps 721 mmHg 27%
    08:00 +35°C° 0 mm 2 mps 722 mmHg 26%
    09:00 +36°C° 0 mm 2 mps 722 mmHg 24%
    10:00 +37°C° 0 mm 3 mps 722 mmHg 22%
    11:00 +38°C° 0 mm 4 mps 722 mmHg 20%
    12:00 +40°C° 0 mm 4 mps 721 mmHg 19%
    13:00 +40°C° 0 mm 3 mps 720 mmHg 18%
    14:00 +42°C° 0 mm 3 mps 719 mmHg 17%
    15:00 +42°C° 0 mm 3 mps 719 mmHg 18%
    16:00 +40°C° 0 mm 2 mps 719 mmHg 18%
    17:00 +39°C° 0 mm 2 mps 718 mmHg 19%
    18:00 +38°C° 0 mm 2 mps 719 mmHg 21%
    19:00 +35°C° 0 mm 1 mps 719 mmHg 23%
    20:00 +34°C° 0 mm 1 mps 720 mmHg 24%
    21:00 +33°C° 0 mm 1 mps 720 mmHg 25%
    22:00 +33°C° 0 mm 1 mps 720 mmHg 26%
    23:00 +32°C° 0 mm 1 mps 720 mmHg 27%

    Day after tomorrow, 23 November, Friday

    Time Temperature Precipitation Wind Pressure Humidity
    00:00 +32°C° 0 mm 1 mps 720 mmHg 27%
    01:00 +32°C° 0 mm 1 mps 720 mmHg 27%
    02:00 +31°C° 0 mm 1 mps 720 mmHg 28%
    03:00 +31°C° 0 mm 2 mps 720 mmHg 28%
    04:00 +31°C° 0 mm 2 mps 720 mmHg 28%
    05:00 +30°C° 0 mm 2 mps 720 mmHg 28%
    06:00 +31°C° 0 mm 2 mps 721 mmHg 24%
    07:00 +34°C° 0 mm 3 mps 722 mmHg 21%
    08:00 +35°C° 0 mm 4 mps 723 mmHg 18%
    09:00 +37°C° 0 mm 4 mps 723 mmHg 16%
    10:00 +38°C° 0 mm 4 mps 723 mmHg 15%
    11:00 +41°C° 0 mm 4 mps 722 mmHg 13%
    12:00 +42°C° 0 mm 3 mps 722 mmHg 13%
    13:00 +42°C° 0 mm 3 mps 721 mmHg 13%
    14:00 +43°C° 0 mm 3 mps 720 mmHg 12%
    15:00 +42°C° 0 mm 3 mps 720 mmHg 13%
    16:00 +40°C° 0 mm 2 mps 719 mmHg 13%
    17:00 +39°C° 0 mm 2 mps 719 mmHg 14%
    18:00 +38°C° 0 mm 3 mps 720 mmHg 15%
    19:00 +37°C° 0 mm 3 mps 720 mmHg 16%
    20:00 +35°C° 0 mm 3 mps 721 mmHg 17%
    21:00 +35°C° 0 mm 3 mps 721 mmHg 17%
    22:00 +34°C° 0 mm 3 mps 721 mmHg 17%
    23:00 +34°C° 0 mm 3 mps 721 mmHg 17%

    24 November, Saturday

    Time Temperature Precipitation Wind Pressure Humidity
    00:00 +33°C° 0 mm 3 mps 721 mmHg 17%
    01:00 +31°C° 0 mm 3 mps 720 mmHg 17%
    02:00 +31°C° 0 mm 3 mps 720 mmHg 17%
    03:00 +30°C° 0 mm 3 mps 720 mmHg 18%
    04:00 +30°C° 0 mm 3 mps 721 mmHg 19%
    05:00 +29°C° 0 mm 3 mps 721 mmHg 20%
    06:00 +30°C° 0 mm 3 mps 721 mmHg 20%
    07:00 +32°C° 0 mm 4 mps 722 mmHg 19%
    08:00 +34°C° 0 mm 5 mps 723 mmHg 19%
    09:00 +36°C° 0 mm 5 mps 723 mmHg 17%
    10:00 +37°C° 0 mm 5 mps 723 mmHg 15%
    11:00 +40°C° 0 mm 5 mps 722 mmHg 13%
    12:00 +41°C° 0 mm 4 mps 722 mmHg 13%
    13:00 +42°C° 0 mm 4 mps 721 mmHg 12%
    14:00 +42°C° 0 mm 3 mps 720 mmHg 12%
    15:00 +42°C° 0 mm 3 mps 720 mmHg 13%
    16:00 +40°C° 0 mm 3 mps 719 mmHg 13%
    17:00 +39°C° 0 mm 3 mps 719 mmHg 14%
    18:00 +37°C° 0 mm 3 mps 720 mmHg 15%
    19:00 +36°C° 0 mm 3 mps 721 mmHg 16%
    20:00 +35°C° 0 mm 3 mps 721 mmHg 17%
    21:00 +34°C° 0 mm 3 mps 721 mmHg 17%
    22:00 +34°C° 0 mm 3 mps 721 mmHg 17%
    23:00 +33°C° 0 mm 4 mps 721 mmHg 17%

    25 November, Sunday

    Time Temperature Precipitation Wind Pressure Humidity
    00:00 +32°C° 0 mm 4 mps 721 mmHg 17%
    01:00 +32°C° 0 mm 4 mps 721 mmHg 17%
    02:00 +30°C° 0 mm 4 mps 720 mmHg 17%
    03:00 +30°C° 0 mm 4 mps 721 mmHg 17%
    04:00 +29°C° 0 mm 4 mps 721 mmHg 17%
    05:00 +29°C° 0 mm 4 mps 721 mmHg 17%
    06:00 +30°C° 0 mm 4 mps 722 mmHg 16%
    07:00 +30°C° 0 mm 5 mps 722 mmHg 15%
    08:00 +32°C° 0 mm 5 mps 723 mmHg 15%
    09:00 +34°C° 0 mm 5 mps 723 mmHg 14%
    10:00 +36°C° 0 mm 5 mps 723 mmHg 13%
    11:00 +39°C° 0 mm 5 mps 722 mmHg 12%
    12:00 +39°C° 0 mm 5 mps 721 mmHg 12%
    13:00 +40°C° 0 mm 5 mps 721 mmHg 12%
    14:00 +41°C° 0 mm 5 mps 720 mmHg 12%
    15:00 +40°C° 0 mm 4 mps 720 mmHg 13%
    16:00 +38°C° 0 mm 4 mps 719 mmHg 13%
    17:00 +38°C° 0 mm 3 mps 719 mmHg 14%
    18:00 +36°C° 0 mm 3 mps 720 mmHg 15%
    19:00 +35°C° 0 mm 3 mps 720 mmHg 17%
    20:00 +33°C° 0 mm 3 mps 721 mmHg 18%
    21:00 +33°C° 0 mm 3 mps 720 mmHg 18%
    22:00 +31°C° 0 mm 3 mps 720 mmHg 18%
    23:00 +31°C° 0 mm 3 mps 720 mmHg 18%

    26 November, Monday

    Time Temperature Precipitation Wind Pressure Humidity
    00:00 +30°C° 0 mm 3 mps 720 mmHg 18%
    01:00 +30°C° 0 mm 3 mps 720 mmHg 18%
    02:00 +29°C° 0 mm 3 mps 719 mmHg 18%
    03:00 +29°C° 0 mm 3 mps 719 mmHg 18%
    04:00 +28°C° 0 mm 3 mps 720 mmHg 18%
    05:00 +28°C° 0 mm 3 mps 720 mmHg 18%
    06:00 +29°C° 0 mm 3 mps 720 mmHg 17%
    07:00 +30°C° 0 mm 4 mps 721 mmHg 16%
    08:00 +33°C° 0 mm 4 mps 721 mmHg 15%
    09:00 +35°C° 0 mm 4 mps 721 mmHg 14%
    10:00 +37°C° 0 mm 5 mps 721 mmHg 14%
    11:00 +40°C° 0 mm 5 mps 721 mmHg 13%
    12:00 +41°C° 0 mm 4 mps 720 mmHg 13%
    13:00 +41°C° 0 mm 4 mps 719 mmHg 13%
    14:00 +42°C° 0 mm 3 mps 718 mmHg 13%
    15:00 +40°C° 0 mm 3 mps 718 mmHg 14%
    16:00 +40°C° 0 mm 3 mps 718 mmHg 14%
    17:00 +39°C° 0 mm 2 mps 718 mmHg 15%
    18:00 +37°C° 0 mm 2 mps 718 mmHg 17%
    19:00 +36°C° 0 mm 2 mps 719 mmHg 18%
    20:00 +34°C° 0 mm 2 mps 719 mmHg 19%
    21:00 +34°C° 0 mm 2 mps 719 mmHg 20%
    22:00 +32°C° 0 mm 2 mps 719 mmHg 20%
    23:00 +31°C° 0 mm 2 mps 719 mmHg 21%
    Show more